Tracking 25656 objects as of 21-May-2022
HD Live streaming from Space Station
objects crossing your sky now

COSMOS 1275 DEB

Track COSMOS 1275 DEB now!
10-day predictions


NORAD ID: 18902
Int'l Code: 1981-053MG
Perigee: 796.9 km
Apogee: 814.6 km
Inclination: 83.0 °
Period: 100.8 minutes
Semi major axis: 7176 km
RCS: 0.0086 m2 (small)
Launch date: June 4, 1981
Source: Commonwealth of Independent States (former USSR) (CIS)
Launch site: PLESETSK MISSILE AND SPACE COMPLEX (PKMTR)

Note: This is SATELLITE DEBRIS
aabbcc
Your satellite tracking list
Your tracking list is empty




NASA's NSSDC Master Catalog

Two Line Element Set (TLE):
1 18902U 81053MB  22141.11928894  .00005258  00000-0  21137-2 0  9995
2 18902  82.9531  87.0535 0012332 156.9876 203.1865 14.27943075451132
Source of the keplerian elements: AFSPC